Torna al catalogo

COSMOS 2251 DEB

AttivoLEO
NORAD 40239·DEBRIS·🇷🇺 Russia

Lanciato Jun 16, 1993 da Plesetsk Cosmodrome

Loading…

Prossimi Passaggi (prossime 24 ore)

TLE

In scadenzaSource: Space-Track

Epoca: Sep 9, 2026, 23:41 UTC

1 40239U 93036BVU 26252.98707269  .00000835  00000-0  16142-3 0  9997
2 40239  74.0282 115.9398 0085144 160.2234 267.9449 14.62793324635768

Traccia COSMOS 2251 DEB in tempo reale con AllMySat

Download on the App Store